Regional Weather Roundup
Issued by NWS

Home | Current Version | Previous Version | Text Only | Print | Product List | Glossary Off
Versions: 1 2 3 4 5 6 7 8 9 10 11 12 13 14 15 16 17 18 19 20 21 22 23 24 25 26 27 28 29 30 31 32 33 34 35 36 37 38 39 40 41 42 43 44 45 46 47 48 49 50

162
ASUS43 KLMK 270002
RWRKY
KENTUCKY REGIONAL WEATHER ROUNDUP
NATIONAL WEATHER SERVICE LOUISVILLE KY
800 PM EDT THU APR 26 2018

NOTE "FAIR" INDICATES FEW OR NO CLOUDS BELOW 12,000 FEET
WITH NO SIGNIFICANT WEATHER AND/OR OBSTRUCTIONS TO VISIBILITY.

KYZ001>023-026-027-061>063-070>075-270100-
WESTERN AND SOUTH CENTRAL KENTUCKY

CITY           SKY/WX    TMP DP  RH WIND       PRES   REMARKS
PADUCAH        FAIR      65  43  44 NW3       29.88S
HENDERSON      FAIR      65  37  35 N5        29.87S
OWENSBORO      FAIR      64  37  36 NW10      29.86S
HOPKINSVILLE   FAIR      60  54  79 SW6       29.87S
BOWLING GREEN  MOCLDY    61  54  77 SW8       29.86F
GLASGOW        NOT AVBL
$$

KYZ024-025-028>034-038-045-046-053-270100-
NORTH CENTRAL KENTUCKY

CITY           SKY/WX    TMP DP  RH WIND       PRES   REMARKS
LOUISVILLE/SDF MOCLDY    68  36  30 N9        29.82S
LOUISVILLE/LOU FAIR      67  39  35 N5        29.83S
FORT KNOX      CLOUDY    64  36  35 W7        29.83S
$$

KYZ035>037-039>044-047>052-055>060-089>105-270100-
NORTHEAST KENTUCKY

CITY           SKY/WX    TMP DP  RH WIND       PRES   REMARKS
LEXINGTON      MOCLDY    64  42  44 CALM      29.84S
COVINGTON      MOCLDY    65  31  28 CALM      29.83F
FRANKFORT      FAIR      64  42  44 W5        29.83S
$$

KYZ054-064>069-076>088-106>120-270100-
SOUTHEAST KENTUCKY

CITY           SKY/WX    TMP DP  RH WIND       PRES   REMARKS
JACKSON        LGT RAIN  56  46  69 S3        29.85S
LONDON         LGT RAIN  54  52  93 S5        29.88R FOG
SOMERSET       NOT AVBL
MIDDLESBORO    LGT RAIN  55  49  83 CALM      29.87R
MONTICELLO     NOT AVBL
$$





USA.gov is the U.S. government's official web portal to all federal, state and local government web resources and services.